Wind_Speed
109 109 108 106 104 105 106 101 99 94 93 92 85 82 77 74 70 64 59 57 54 66 65 48 34 53 54 59 54 48 36 35
109 109 105 104 98 95 92 89 86 82 79 77 73 67 70 69 67 65 66 62 64 73 74 73 67 72 66 66 58 51 48 38
108 106 101 98 94 91 89 87 85 82 78 74 71 67 63 61 55 55 60 62 66 68 88 79 74 61 66 70 65 59 53 41
103 100 96 95 92 90 89 87 83 79 78 77 73 68 64 56 54 53 55 64 72 76 86 77 77 65 61 67 61 59 56 51
98 96 95 96 94 91 88 86 83 82 81 80 79 76 70 63 60 56 55 63 73 78 92 88 89 81 70 66 64 67 60 53
97 96 95 95 94 94 94 92 89 86 83 80 78 77 77 74 68 65 61 63 73 83 86 95 97 90 75 72 75 71 63 56
93 91 90 91 91 91 90 87 83 80 76 75 75 74 76 78 78 74 71 68 71 82 87 97 97 93 84 82 65 72 68 66
73 72 72 73 73 74 74 74 72 70 68 67 67 68 73 75 79 82 81 77 74 82 89 97 91 99 89 89 82 73 82 71
61 61 61 63 63 64 63 62 61 60 58 57 56 59 63 69 75 83 88 88 83 81 88 101 96 104 103 84 90 96 91 75
57 57 56 55 56 55 54 53 51 50 49 48 47 53 57 61 68 78 87 93 93 87 90 98 103 108 109 106 93 91 84 81
56 54 53 51 49 49 48 45 44 42 41 41 41 46 47 56 65 71 80 90 97 96 94 100 107 114 114 114 108 101 88 84
53 51 49 47 46 45 42 38 37 36 35 36 37 40 42 50 60 65 74 88 96 105 102 106 112 119 116 116 106 102 99 94
53 48 45 44 44 42 38 35 32 31 30 32 33 36 40 46 54 62 69 81 93 103 108 111 114 121 119 119 111 108 104 94
58 51 48 46 43 41 36 34 30 30 27 26 28 35 37 41 49 59 65 74 85 99 112 117 118 119 121 121 120 111 107 103
65 60 51 46 44 43 39 33 29 29 25 25 23 29 35 38 43 54 62 67 77 88 103 117 118 120 121 125 123 114 110 106
68 64 61 53 47 44 39 35 32 27 23 23 23 25 31 35 39 46 55 62 68 79 92 106 118 117 124 128 128 122 114 112
68 69 67 63 55 48 42 38 33 28 24 23 22 21 26 31 36 41 49 57 63 71 80 97 114 116 123 131 130 129 120 116
67 68 66 64 62 56 48 41 35 30 24 21 21 20 23 25 32 34 39 50 57 64 73 84 103 119 119 136 135 130 123 115
64 67 68 67 64 60 53 45 39 33 27 22 20 21 22 23 26 29 31 40 49 58 67 77 95 113 118 138 138 132 126 124
Wind_Direction
287 287 286 285 285 282 280 279 277 278 278 276 274 272 270 268 265 257 244 236 225 210 212 215 210 265 240 247 245 245 242 238
290 291 290 287 285 284 282 280 279 278 276 274 272 269 265 264 260 254 244 237 222 218 212 219 214 224 241 239 236 243 244 239
291 290 288 287 285 282 280 278 276 274 272 270 269 266 262 258 255 248 239 232 224 218 214 219 219 225 227 237 238 238 236 237
290 289 288 287 285 282 281 279 277 274 271 267 264 261 257 249 247 243 233 225 219 213 213 218 212 215 219 227 237 235 234 227
294 293 291 289 289 288 285 281 279 276 272 267 262 258 250 244 241 236 231 222 218 212 212 214 212 208 214 219 218 234 233 225
295 294 293 292 290 287 284 282 280 277 274 268 262 257 249 244 237 232 228 218 216 211 209 211 212 211 215 219 217 226 226 225
291 291 288 286 285 284 283 282 281 278 273 269 263 256 249 243 238 232 227 220 216 211 207 207 210 210 210 211 207 222 224 220
291 290 290 288 285 282 281 279 277 274 272 268 263 257 250 241 236 232 227 223 216 212 206 207 211 209 209 210 210 211 221 218
306 302 299 296 293 289 286 281 278 274 271 266 260 254 247 242 235 230 226 222 218 211 211 209 211 208 204 207 211 215 216 209
314 310 307 303 297 294 291 286 281 275 269 262 255 250 243 239 232 227 224 222 218 211 206 205 210 207 207 204 208 212 213 213
323 319 315 311 306 301 296 290 284 278 269 262 253 246 238 235 232 225 222 220 217 211 205 204 207 206 207 205 211 216 212 211
330 326 322 318 313 308 300 294 287 280 274 265 257 248 239 232 231 227 221 218 217 211 207 201 205 206 207 206 209 211 213 214
340 336 331 326 323 318 311 301 293 284 277 271 265 254 239 233 227 227 222 219 216 213 208 204 202 206 205 206 206 205 211 210
352 345 341 336 331 329 322 312 303 294 281 277 273 259 243 232 225 225 226 220 217 215 210 206 203 203 206 206 205 206 210 214
353 353 351 344 339 335 333 321 308 301 286 280 276 269 246 233 226 223 225 223 219 216 213 209 207 203 203 207 206 205 210 210
354 355 355 352 345 342 337 330 319 311 290 282 280 272 250 235 229 224 224 225 221 218 214 212 210 206 202 204 208 206 208 209
354 356 356 353 352 347 343 337 329 316 301 281 283 271 255 239 230 224 224 225 222 219 216 212 210 209 204 202 206 206 206 210
354 356 355 355 352 351 346 342 336 328 314 289 285 272 256 236 233 229 222 224 224 220 217 214 210 210 206 202 204 205 205 207
354 355 356 355 354 351 348 346 340 333 324 307 287 276 260 243 229 235 225 221 221 222 218 214 210 209 208 203 203 204 203 206
Height
10637 10633 10630 10625 10618 10612 10608 10604 10603 10598 10593 10600 10607 10612 10618 10622 10630 10640 10650 10666 10678 10687 10697 10706 10698 10714 10718 10715 10718 10720 10721 10724
10604 10597 10593 10590 10586 10582 10579 10578 10576 10572 10572 10573 10580 10589 10594 10598 10604 10615 10624 10639 10655 10667 10676 10685 10690 10698 10705 10704 10708 10709 10710 10716
10573 10567 10561 10557 10554 10552 10549 10547 10546 10546 10547 10550 10554 10563 10571 10576 10581 10589 10598 10610 10626 10641 10652 10666 10677 10681 10685 10693 10697 10699 10699 10707
10542 10536 10529 10524 10518 10515 10513 10513 10517 10519 10520 10524 10530 10538 10548 10557 10562 10566 10574 10583 10599 10614 10628 10642 10654 10658 10668 10683 10689 10687 10690 10697
10509 10501 10493 10485 10481 10477 10475 10476 10480 10484 10488 10493 10501 10510 10520 10532 10540 10545 10553 10562 10573 10588 10604 10618 10632 10644 10656 10665 10674 10679 10681 10687
10478 10470 10461 10452 10446 10442 10440 10441 10444 10447 10453 10457 10465 10475 10487 10502 10514 10522 10529 10540 10549 10564 10580 10591 10607 10624 10635 10644 10652 10664 10667 10672
10452 10444 10433 10423 10416 10411 10408 10408 10410 10414 10419 10424 10430 10441 10451 10467 10483 10495 10504 10516 10527 10539 10555 10569 10584 10602 10616 10625 10631 10640 10649 10658
10430 10419 10409 10401 10393 10387 10382 10380 10381 10384 10388 10394 10400 10408 10416 10431 10447 10464 10477 10488 10501 10515 10530 10546 10561 10578 10593 10604 10614 10616 10626 10640
10408 10398 10388 10379 10371 10364 10360 10358 10357 10359 10362 10367 10373 10377 10385 10395 10411 10426 10441 10460 10474 10489 10505 10521 10536 10555 10571 10584 10592 10602 10613 10623
10393 10381 10371 10362 10354 10347 10342 10338 10337 10337 10339 10343 10349 10351 10358 10366 10377 10392 10409 10428 10447 10463 10479 10492 10509 10529 10545 10561 10574 10586 10597 10606
10379 10368 10358 10349 10340 10332 10326 10323 10320 10320 10321 10324 10329 10331 10337 10342 10349 10364 10381 10398 10416 10437 10454 10468 10483 10501 10520 10538 10552 10566 10579 10589
10371 10358 10347 10338 10329 10321 10314 10310 10308 10307 10307 10308 10312 10315 10319 10323 10328 10341 10355 10369 10387 10407 10423 10440 10456 10476 10497 10514 10528 10544 10558 10571
10364 10352 10340 10329 10319 10312 10306 10300 10298 10296 10296 10296 10298 10301 10304 10307 10313 10321 10333 10346 10360 10378 10397 10414 10430 10451 10470 10490 10506 10523 10539 10555
10358 10346 10334 10323 10313 10306 10299 10293 10289 10286 10285 10286 10287 10287 10291 10294 10299 10304 10311 10324 10337 10352 10368 10384 10404 10423 10447 10466 10485 10502 10521 10538
10355 10341 10330 10319 10308 10299 10292 10286 10281 10277 10275 10276 10275 10276 10277 10281 10285 10289 10295 10304 10317 10331 10348 10364 10382 10402 10424 10446 10467 10483 10501 10517
10353 10339 10326 10315 10305 10296 10288 10280 10274 10270 10266 10265 10266 10266 10267 10270 10273 10277 10282 10288 10300 10310 10324 10344 10364 10384 10402 10424 10445 10467 10482 10499
10352 10336 10323 10311 10300 10291 10283 10275 10268 10263 10260 10258 10256 10256 10258 10260 10262 10266 10270 10274 10283 10292 10305 10321 10342 10362 10384 10401 10422 10444 10464 10482
10351 10338 10325 10311 10298 10287 10278 10270 10263 10257 10253 10250 10248 10247 10249 10250 10251 10255 10259 10262 10268 10278 10288 10303 10321 10342 10361 10379 10400 10424 10448 10466
10352 10338 10323 10309 10297 10284 10274 10266 10259 10252 10247 10243 10241 10238 10239 10240 10241 10244 10248 10251 10256 10263 10272 10284 10298 10319 10341 10363 10382 10406 10434 10453